User: anonymous   Login
Location: Newark
(47.0000°N, 7.6833°E)
Time: 09:31:56
(UTC+00:00)
Language:

CAS-4A - Orbit

View from above orbital plane
View from above orbital plane
View from above satellite
View from above satellite

Ground track
Ground track

The orbit data is extracted from the following two-line orbital elements,

1 42761U 17034D   19292.15932198  .00000232  00000-0  27624-4 0  9998
2 42761  43.0188 277.5813 0013136 304.4277 111.7358 15.09734988129349
Epoch (UTC): 19 October 2019 03:49:25
Eccentricity: 0.0013136
inclination: 43.0188°
perigee height: 528 km
apogee height: 546 km
right ascension of ascending node: 277.5813°
argument of perigee: 304.4277°
revolutions per day: 15.09734988
mean anomaly at epoch: 111.7358°
orbit number at epoch: 12934

The dashed part of the orbit path shows where the satellite is in the earth's shadow,  

DLR